{"data":{"norad_id":64500,"intl_designator":"2025-134A","name":"KUIPER-00039","alt_names":[],"object_type":"PAYLOAD","status":"ACTIVE","operator":null,"country":"US","launch_date":"2025-06-23","launch_site_code":"AFETR","launch_vehicle":null,"mission":null,"orbit_class":"UNKNOWN","rcs_meters":null,"size_class":null,"mass_kg":null,"dimensions":null,"purposes":[],"wikipedia_slug":null,"has_3d_model":false,"image_url":null,"decayed_at":null,"tle_current":{"epoch":"2026-05-25T00:09:24.861600Z","epoch_age_seconds":67770,"freshness":"FRESH","line1":"1 64500U 25134A   26145.00653775  .00001510  00000+0  22706-3 0  9997","line2":"2 64500  51.9001 255.6295 0000357 113.8412 246.2588 14.79936619 51378","mean_motion":14.79936619,"eccentricity":3.57e-5,"inclination_deg":51.9001,"raan_deg":255.6295,"arg_perigee_deg":113.8412,"mean_anomaly_deg":246.2588,"bstar":0.00022706,"rev_number":5137,"period_min":97.301464232503,"perigee_km":629.27403140705,"apogee_km":629.77437841708,"semimajor_km":7007.6612049121,"source":"CELESTRAK","updated_at":"2026-05-25T13:38:04.551628Z"}}}